Showing default

ANGELS, 44876

Orbit data source: Space-Track

ANGELS, 44876 is a payload satellite owned by CNES (FR) in SSO that was launched on Wed, 18 Dec 2019 UTC via a SOYUZ-ST-A launch vehicle from the French Guiana (FRGUI). Payload-class satellites include a variety of spacecraft equipped with specific instruments for various scientific and technological missions. These include communications satellites like Starlink; space stations such as the ISS; scientific satellites like the Hubble; Earth observation satellites from companies like Planet Labs, Umbra, and HawkEye 360; GPS; miniature CubeSats for education and research; and military/defense satellites.

Loading next visibility...
Identifier
44876, 2019-092D
Orbit
SSO
Last TLE update
21 hours ago
Origin
Manufacturer
Hemeria
Mission
Non-operational Civil Communications
Bus & Motor
CUBESAT 12U, Unknown motor
Mass
27 kg wet, 27 kg dry
Launch date (UTC)
2019-12-18 (5 years ago)
Launch vehicle
SOYUZ-ST-A
Launch site
French Guiana (FRGUI)
Object type
Payload
Rocket body
Debris
Shape & HBR
Box + 2 Pan, Unknown HBR
Radar Cross Section
0.126 m², Medium (>0.1 m² and < 1m²)

Expand to show TLE details & history

TLE from 21 hours ago
0 ANGELS
1 44876U 19092D   25128.49019742  .00027689  00000-0  63419-3 0  9992
2 44876  97.4588 326.1395 0006289 232.6104 127.4572 15.42728256299194
Epoch: 2025-05-08T11:45Z
Definitive object data (Epoch: 2025-05-08T11:45:53.057Z)
Latitude
0.00008°
Longitude
-76.89153°
Altitude
443.79 km
Speed
7.644 km/s
True Right ascension
21h 44m 33s
True Declination
0° 00' 00"
Sunlit
Object was in daylight at TLE epoch
Visualization TLE readout
Latitude
66.7315°
Longitude
-93.64002°
Altitude
453.561 km
Speed
7.644 km/s
Apparent Right ascension
02h 13m 31s
Apparent Declination
26° 30' 13"
Sunlit
Object is in daylight
Visualization observer readout
Local Sidereal Time
16:26:48
Azimuth
30.879° NE
Elevation
-16.69°
Doppler factor
1
Orbital elements
Apogee altitude
439.284 km
Perigee altitude
430.714 km
Semi-major axis
6,813.136 km
Eccentricity
0.0006289
Inclination
97.4588°
RAAN
326.1395°
Arg. of periapsis
232.6104°
True anomaly
127.51438°
Mean anomaly
127.4572°
Eccentric anomaly
127.48579°
Mean motion
3.85942 °/min
BSTAR
0.00063419
Orbital period
93.28 mins
Loading maneuver chart data...
Loading SW <> Apogee altitude chart data...
Loading historical data...
Loading historical data...
Loading historical data...
Loading historical data...
Loading historical data...
Loading historical data...
Loading historical data...

ANGELS Visibility forecast

Observer location: undefined°, undefined°

Span
Click to sort rows by Start time (UTC) header in descending order
Start Az.
Max El. time (UTC)
Max El. Az.
Max El.
End time (UTC)
End Az.
5 mins2025-05-09 12:48:40.192Z138.461° SSE2025-05-09 12:50:40.192Z90.982° ESE31.785°2025-05-09 12:53:40.192Z6.543° NNE
4 mins2025-05-10 01:42:40.192Z47.959° ENE2025-05-10 01:43:40.192Z86.392° E33.807°2025-05-10 01:46:40.192Z170.328° S
|